Regional Weather Roundup
Issued by NWS Albany, NY

Home | Current Version | Previous Version | Text Only | Print | Product List | Glossary On
Versions: 1 2 3 4 5 6 7 8 9 10 11 12 13 14 15 16 17 18 19 20 21 22 23 24 25 26 27 28
000
ASUS41 KALY 181110
RWRALY

NEW YORK STATE HOURLY WEATHER ROUNDUP
NATIONAL WEATHER SERVICE ALBANY NY
700 AM EDT FRI APR 18 2014

NOTE: "FAIR" INDICATES FEW OR NO CLOUDS BELOW 12,000 FEET WITH NO
SIGNIFICANT WEATHER AND/OR NO OBSTRUCTIONS TO VISIBILITY.

NYZ032-033-038>043-046>054-057>066-NYZ062>081-181200-
EAST


CITY           SKY/WX    TMP DP  RH WIND       PRES   REMARKS
ALBANY         PTCLDY    30  21  69 CALM      30.52R
GLENS FALLS    CLEAR    N/A N/A N/A CALM      30.51R
POUGHKEEPSIE   CLEAR     31  24  75 CALM      30.54R
NEWBURGH       CLEAR     30  27  86 E6        30.53R WCI  24
MONTGOMERY     CLEAR     30  26  85 NE3       30.52R
WHITE PLAINS   CLOUDY    32  24  72 NE5       30.52R WCI  27
ISLIP          CLOUDY    36  28  73 E8        30.50S WCI  30
NEW YORK CITY  MOCLDY    35  25  66 E10       30.54R WCI  27
CENTRAL PARK   CLOUDY    36  26  67 E8        30.55R WCI  30
$$

NYZ005>009-017-018-044>046-055-056-181200-
CENTRAL


CITY           SKY/WX    TMP DP  RH WIND       PRES   REMARKS
FULTON         CLEAR     37  26  64 SE7       30.39R WCI  32
SYRACUSE       MOCLDY    36  25  64 E5        30.42R WCI  32
ROME           CLEAR     32  23  69 SE7       30.46S WCI  26
ELMIRA         CLEAR     34  25  69 SE6       30.41F WCI  29
BINGHAMTON     CLEAR     31  26  82 SE10      30.40S WCI  22
MONTICELLO     CLOUDY    27  25  93 CALM      30.48R
$$

NYZ026>034-041>043-181200-
NORTH


CITY           SKY/WX    TMP DP  RH WIND       PRES   REMARKS
WATERTOWN      CLEAR     41  23  48 S7        30.37S
FORT DRUM      NOT AVBL
MASSENA        PTCLDY    37  23  56 E3        30.40S
SARANAC LAKE   PTCLDY    22  20  92 CALM      30.37S
PLATTSBURGH    CLEAR     34  19  54 S5        30.46F WCI  30
$$

NYZ001>004-010>016-019>021-181200-
WEST


CITY           SKY/WX    TMP DP  RH WIND       PRES   REMARKS
NIAGARA FALLS  MOCLDY    44  28  53 S9        30.27R
BUFFALO        MOCLDY    43  29  57 S9        30.28R
DUNKIRK        PTCLDY    47  27  45 S17       30.27S
JAMESTOWN      PTCLDY    37  27  65 S13G20    30.32R WCI  29
WELLSVILLE     CLEAR     35  27  72 S8        30.34S WCI  29
ROCHESTER      MOCLDY    42  29  59 S7        30.33R
PENN YAN       CLEAR     37  28  70 S8        30.36F WCI  31
$$

             KEY
       WCI = WIND CHILL INDEX
       VSB = VISIBILITY
       HX  = HEAT INDEX
$$



USA.gov is the U.S. government's official web portal to all federal, state and local government web resources and services.